AAL458 KEYW-TIST

Flight info

Callsign AAL458
Flight time 2h 29m
Altitude 35000
Route TUNSL Y262 SAXXN Y398 SKIPS Y290 JETSS
Aircraft B738/M-SDE2E3FGHIRWXY/LB1

Departure

Time 2026-04-21 14:20
Airport Key West International Airport (KEYW)

Arrival

Time 2026-04-21 16:49
Airport Cyril E. King Airport (TIST)
Time Latitude Longitude Altitude Speed Heading
2026-04-21 14:12 24.55477 -81.75415 19 ft 0 kts 227°
2026-04-21 14:15 24.55473 -81.75424 19 ft 3 kts 251°
2026-04-21 14:15 24.55493 -81.75443 20 ft 4 kts 338°
2026-04-21 14:16 24.55521 -81.75455 19 ft 4 kts 327°
2026-04-21 14:16 24.55530 -81.75485 21 ft 5 kts 275°
2026-04-21 14:16 24.55530 -81.75535 19 ft 8 kts 270°
2026-04-21 14:16 24.55530 -81.75595 19 ft 8 kts 270°
2026-04-21 14:17 24.55530 -81.75653 19 ft 7 kts 269°
2026-04-21 14:17 24.55530 -81.75709 19 ft 7 kts 269°
2026-04-21 14:17 24.55529 -81.75771 19 ft 10 kts 269°
2026-04-21 14:17 24.55528 -81.75858 17 ft 14 kts 269°
2026-04-21 14:18 24.55524 -81.75979 14 ft 18 kts 267°
2026-04-21 14:18 24.55525 -81.76116 12 ft 18 kts 270°
2026-04-21 14:18 24.55524 -81.76250 12 ft 17 kts 268°
2026-04-21 14:18 24.55521 -81.76378 12 ft 16 kts 269°
2026-04-21 14:19 24.55520 -81.76502 10 ft 16 kts 270°
2026-04-21 14:19 24.55520 -81.76608 12 ft 12 kts 271°
2026-04-21 14:19 24.55577 -81.76655 13 ft 12 kts 10°
2026-04-21 14:19 24.55606 -81.76615 13 ft 0 kts 84°
2026-04-21 14:20 24.55611 -81.76301 10 ft 87 kts 89°
2026-04-21 14:20 24.55624 -81.75331 57 ft 162 kts 86°
2026-04-21 14:20 24.55648 -81.73998 828 ft 178 kts 78°
2026-04-21 14:21 24.56239 -81.72808 1820 ft 189 kts 45°
2026-04-21 14:21 24.57467 -81.72091 2209 ft 214 kts 22°
2026-04-21 14:21 24.58964 -81.71741 2798 ft 225 kts 15°
2026-04-21 14:21 24.60435 -81.71149 3292 ft 230 kts 36°
2026-04-21 14:22 24.61908 -81.70246 3735 ft 250 kts 28°
2026-04-21 14:22 24.63477 -81.69427 4691 ft 250 kts 30°
2026-04-21 14:22 24.65057 -81.68509 5252 ft 267 kts 32°
2026-04-21 14:22 24.66751 -81.67458 5664 ft 290 kts 33°
2026-04-21 14:23 24.68532 -81.66314 6345 ft 302 kts 31°
2026-04-21 14:23 24.70362 -81.65115 7119 ft 305 kts 32°
2026-04-21 14:23 24.72177 -81.63905 8041 ft 307 kts 32°
2026-04-21 14:23 24.74021 -81.62666 8751 ft 314 kts 32°
2026-04-21 14:24 24.75877 -81.61408 9467 ft 322 kts 33°
2026-04-21 14:24 24.77811 -81.60091 10104 ft 332 kts 32°
2026-04-21 14:24 24.79809 -81.58730 10708 ft 340 kts 31°
2026-04-21 14:24 24.81815 -81.57361 11557 ft 340 kts 30°
2026-04-21 14:25 24.83844 -81.55977 12238 ft 345 kts 31°
2026-04-21 14:25 24.85895 -81.54575 12975 ft 348 kts 28°
2026-04-21 14:25 24.87965 -81.53163 13696 ft 352 kts 31°
2026-04-21 14:25 24.89930 -81.51516 14308 ft 361 kts 40°
2026-04-21 14:26 24.91586 -81.49399 14988 ft 366 kts 52°
2026-04-21 14:26 24.93020 -81.47047 15569 ft 374 kts 54°
2026-04-21 14:26 24.94431 -81.44668 16216 ft 375 kts 53°
2026-04-21 14:26 24.95864 -81.42243 16805 ft 381 kts 53°
2026-04-21 14:27 24.97320 -81.39790 17486 ft 382 kts 54°
2026-04-21 14:27 24.98787 -81.37331 18044 ft 388 kts 52°
2026-04-21 14:27 25.00270 -81.34856 18606 ft 392 kts 53°
2026-04-21 14:27 25.01783 -81.32335 19153 ft 395 kts 53°
2026-04-21 14:28 25.03310 -81.29793 19714 ft 398 kts 53°
2026-04-21 14:28 25.04842 -81.27244 20249 ft 401 kts 53°
2026-04-21 14:28 25.06393 -81.24662 20740 ft 406 kts 52°
2026-04-21 14:28 25.07938 -81.22090 21306 ft 408 kts 53°
2026-04-21 14:29 25.09507 -81.19474 21867 ft 410 kts 53°
2026-04-21 14:29 25.11091 -81.16833 22324 ft 415 kts 53°
2026-04-21 14:29 25.12688 -81.14168 22781 ft 419 kts 53°
2026-04-21 14:29 25.14303 -81.11472 23281 ft 422 kts 53°
2026-04-21 14:30 25.15930 -81.08757 23755 ft 425 kts 52°
2026-04-21 14:30 25.17569 -81.06024 24163 ft 428 kts 52°
2026-04-21 14:30 25.19222 -81.03275 24561 ft 431 kts 52°
2026-04-21 14:30 25.20888 -81.00502 24962 ft 434 kts 52°
2026-04-21 14:31 25.22565 -80.97709 25356 ft 436 kts 52°
2026-04-21 14:31 25.24220 -80.94948 25747 ft 439 kts 52°
2026-04-21 14:31 25.25912 -80.92125 26139 ft 441 kts 52°
2026-04-21 14:31 25.27611 -80.89289 26510 ft 444 kts 52°
2026-04-21 14:32 25.29324 -80.86426 26845 ft 448 kts 52°
2026-04-21 14:32 25.31047 -80.83540 27195 ft 451 kts 52°
2026-04-21 14:32 25.32781 -80.80634 27549 ft 454 kts 52°
2026-04-21 14:32 25.34523 -80.77709 27899 ft 457 kts 52°
2026-04-21 14:33 25.36277 -80.74763 28293 ft 458 kts 52°
2026-04-21 14:33 25.38035 -80.71808 28683 ft 460 kts 52°
2026-04-21 14:33 25.39777 -80.68878 29014 ft 463 kts 52°
2026-04-21 14:33 25.41548 -80.65897 29332 ft 466 kts 52°
2026-04-21 14:34 25.43336 -80.62888 29637 ft 469 kts 52°
2026-04-21 14:34 25.45129 -80.59867 29958 ft 471 kts 52°
2026-04-21 14:34 25.46934 -80.56824 30277 ft 473 kts 52°
2026-04-21 14:34 25.48747 -80.53766 30527 ft 476 kts 52°
2026-04-21 14:35 25.50568 -80.50691 30740 ft 479 kts 52°
2026-04-21 14:35 25.52405 -80.47589 30961 ft 482 kts 52°
2026-04-21 14:35 25.54247 -80.44477 31173 ft 485 kts 52°
2026-04-21 14:35 25.56097 -80.41346 31426 ft 487 kts 52°
2026-04-21 14:36 25.57954 -80.38201 31733 ft 487 kts 52°
2026-04-21 14:36 25.59786 -80.35097 32014 ft 488 kts 52°
2026-04-21 14:36 25.61647 -80.31942 32274 ft 490 kts 51°
2026-04-21 14:36 25.63509 -80.28784 32610 ft 489 kts 51°
2026-04-21 14:37 25.65362 -80.25635 33066 ft 486 kts 51°
2026-04-21 14:37 25.67212 -80.22491 33368 ft 487 kts 51°
2026-04-21 14:37 25.69072 -80.19334 33538 ft 490 kts 51°
2026-04-21 14:37 25.70937 -80.16164 33765 ft 492 kts 51°
2026-04-21 14:38 25.72766 -80.12946 34009 ft 497 kts 57°
2026-04-21 14:38 25.73967 -80.09297 34195 ft 509 kts 77°
2026-04-21 14:38 25.74199 -80.05361 34414 ft 514 kts 95°
2026-04-21 14:38 25.73460 -80.01489 34651 ft 513 kts 109°
2026-04-21 14:39 25.72375 -79.97725 34917 ft 512 kts 109°
2026-04-21 14:39 25.71278 -79.93953 35113 ft 513 kts 109°
2026-04-21 14:39 25.70204 -79.90172 35257 ft 515 kts 108°
2026-04-21 14:40 25.68134 -79.82570 35262 ft 519 kts 108°
2026-04-21 14:40 25.66098 -79.74935 35254 ft 513 kts 108°
2026-04-21 14:41 25.64091 -79.67365 35257 ft 511 kts 106°
2026-04-21 14:41 25.62395 -79.59713 35260 ft 511 kts 104°
2026-04-21 14:42 25.60782 -79.52009 35260 ft 511 kts 104°
2026-04-21 14:42 25.59138 -79.44396 35260 ft 512 kts 104°
2026-04-21 14:43 25.57453 -79.36731 35259 ft 513 kts 104°
2026-04-21 14:43 25.55749 -79.29049 35259 ft 513 kts 107°
2026-04-21 14:44 25.53040 -79.21786 35256 ft 509 kts 120°
2026-04-21 14:44 25.49771 -79.14802 35254 ft 512 kts 121°
2026-04-21 14:45 25.46495 -79.07783 35250 ft 514 kts 120°
2026-04-21 14:45 25.43265 -79.00743 35249 ft 517 kts 120°
2026-04-21 14:46 25.40018 -78.93615 35253 ft 519 kts 120°
2026-04-21 14:46 25.36763 -78.86478 35245 ft 520 kts 120°
2026-04-21 14:47 25.33501 -78.79345 35244 ft 520 kts 120°
2026-04-21 14:47 25.30238 -78.72225 35236 ft 519 kts 120°
2026-04-21 14:48 25.26971 -78.65109 35247 ft 518 kts 120°
2026-04-21 14:48 25.23712 -78.58022 35244 ft 516 kts 120°
2026-04-21 14:49 25.20484 -78.51014 35234 ft 515 kts 120°
2026-04-21 14:49 25.17237 -78.43973 35215 ft 513 kts 120°
2026-04-21 14:50 25.14520 -78.38091 35230 ft 513 kts 120°
2026-04-21 14:50 25.10745 -78.29932 35244 ft 513 kts 120°
2026-04-21 14:51 25.07493 -78.22917 35241 ft 514 kts 120°
2026-04-21 14:51 25.04249 -78.15928 35241 ft 515 kts 120°
2026-04-21 14:52 25.00980 -78.08894 35237 ft 516 kts 120°
2026-04-21 14:52 24.97697 -78.01844 35234 ft 517 kts 120°
2026-04-21 14:53 24.94960 -77.95971 35234 ft 518 kts 120°
2026-04-21 14:53 24.91664 -77.88911 35238 ft 518 kts 120°
2026-04-21 14:54 24.88364 -77.81847 35216 ft 520 kts 120°
2026-04-21 14:54 24.85046 -77.74764 35210 ft 520 kts 120°
2026-04-21 14:55 24.81729 -77.67695 35204 ft 518 kts 120°
2026-04-21 14:55 24.78445 -77.60701 35216 ft 516 kts 120°
2026-04-21 14:56 24.75141 -77.53677 35220 ft 516 kts 120°
2026-04-21 14:56 24.71892 -77.46634 35223 ft 516 kts 119°
2026-04-21 14:57 24.68684 -77.39572 35222 ft 516 kts 119°
2026-04-21 14:57 24.65490 -77.32554 35222 ft 516 kts 120°
2026-04-21 14:58 24.62269 -77.25509 35221 ft 516 kts 120°
2026-04-21 14:58 24.59035 -77.18459 35225 ft 516 kts 120°
2026-04-21 14:59 24.55793 -77.11405 35223 ft 517 kts 120°
2026-04-21 14:59 24.52542 -77.04342 35216 ft 518 kts 120°
2026-04-21 15:00 24.49289 -76.97282 35214 ft 518 kts 120°
2026-04-21 15:00 24.46026 -76.90212 35218 ft 518 kts 120°
2026-04-21 15:01 24.42766 -76.83158 35190 ft 518 kts 120°
2026-04-21 15:01 24.39504 -76.76110 35206 ft 518 kts 120°
2026-04-21 15:02 24.36257 -76.69107 35210 ft 518 kts 120°
2026-04-21 15:02 24.32984 -76.62059 35210 ft 518 kts 120°
2026-04-21 15:03 24.29712 -76.55023 35210 ft 518 kts 120°
2026-04-21 15:03 24.26433 -76.47980 35213 ft 518 kts 120°
2026-04-21 15:04 24.23151 -76.40945 35209 ft 518 kts 120°
2026-04-21 15:04 24.19887 -76.33956 35207 ft 518 kts 120°
2026-04-21 15:05 24.16597 -76.26925 35208 ft 519 kts 120°
2026-04-21 15:05 24.11653 -76.16376 35201 ft 519 kts 120°
2026-04-21 15:06 24.08354 -76.09350 35201 ft 519 kts 121°
2026-04-21 15:06 24.05067 -76.02360 35201 ft 519 kts 121°
2026-04-21 15:07 24.01758 -75.95333 35203 ft 518 kts 121°
2026-04-21 15:07 23.98451 -75.88322 35198 ft 518 kts 121°
2026-04-21 15:08 23.95145 -75.81323 35196 ft 518 kts 121°
2026-04-21 15:08 23.91856 -75.74370 35196 ft 518 kts 121°
2026-04-21 15:09 23.88543 -75.67377 35194 ft 518 kts 121°
2026-04-21 15:09 23.85226 -75.60385 35195 ft 517 kts 121°
2026-04-21 15:10 23.81911 -75.53407 35189 ft 517 kts 121°
2026-04-21 15:10 23.78594 -75.46436 35190 ft 517 kts 121°
2026-04-21 15:11 23.75275 -75.39472 35192 ft 517 kts 121°
2026-04-21 15:11 23.71953 -75.32510 35184 ft 517 kts 121°
2026-04-21 15:12 23.68631 -75.25559 35182 ft 517 kts 121°
2026-04-21 15:12 23.65322 -75.18646 35164 ft 516 kts 121°
2026-04-21 15:13 23.61991 -75.11694 35177 ft 516 kts 121°
2026-04-21 15:13 23.58660 -75.04755 35185 ft 517 kts 121°
2026-04-21 15:14 23.55319 -74.97805 35180 ft 517 kts 121°
2026-04-21 15:14 23.51974 -74.90854 35181 ft 518 kts 121°
2026-04-21 15:15 23.48621 -74.83899 35175 ft 518 kts 121°
2026-04-21 15:15 23.45280 -74.76977 35172 ft 519 kts 121°
2026-04-21 15:16 23.41914 -74.70014 35172 ft 519 kts 121°
2026-04-21 15:16 23.38545 -74.63054 35171 ft 519 kts 121°
2026-04-21 15:17 23.35175 -74.56103 35169 ft 519 kts 121°
2026-04-21 15:17 23.31802 -74.49155 35168 ft 519 kts 121°
2026-04-21 15:18 23.28420 -74.42197 35166 ft 519 kts 121°
2026-04-21 15:18 23.25056 -74.35287 35163 ft 518 kts 122°
2026-04-21 15:19 23.21680 -74.28362 35167 ft 518 kts 122°
2026-04-21 15:19 23.18299 -74.21437 35155 ft 518 kts 122°
2026-04-21 15:20 23.14915 -74.14516 35161 ft 518 kts 122°
2026-04-21 15:20 23.11526 -74.07593 35155 ft 519 kts 122°
2026-04-21 15:21 23.08156 -74.00720 35160 ft 519 kts 122°
2026-04-21 15:21 23.04759 -73.93800 35155 ft 519 kts 122°
2026-04-21 15:22 23.01357 -73.86881 35158 ft 519 kts 122°
2026-04-21 15:22 22.97955 -73.79970 35149 ft 519 kts 122°
2026-04-21 15:23 22.94552 -73.73067 35150 ft 519 kts 122°
2026-04-21 15:23 22.91145 -73.66166 35152 ft 519 kts 122°
2026-04-21 15:24 22.87738 -73.59273 35116 ft 518 kts 122°
2026-04-21 15:24 22.84350 -73.52428 35140 ft 518 kts 122°
2026-04-21 15:25 22.80942 -73.45553 35143 ft 517 kts 122°
2026-04-21 15:25 22.77532 -73.38684 35145 ft 517 kts 122°
2026-04-21 15:26 22.74113 -73.31806 35145 ft 518 kts 122°
2026-04-21 15:26 22.70694 -73.24937 35145 ft 518 kts 122°
2026-04-21 15:27 22.67271 -73.18068 35142 ft 518 kts 122°
2026-04-21 15:27 22.63869 -73.11252 35142 ft 518 kts 122°
2026-04-21 15:28 22.60437 -73.04385 35141 ft 518 kts 122°
2026-04-21 15:28 22.57001 -72.97518 35142 ft 518 kts 122°
2026-04-21 15:29 22.53567 -72.90666 35137 ft 518 kts 122°
2026-04-21 15:29 22.50148 -72.83852 35136 ft 518 kts 122°
2026-04-21 15:30 22.46709 -72.77006 35136 ft 517 kts 122°
2026-04-21 15:30 22.43269 -72.70169 35129 ft 517 kts 122°
2026-04-21 15:31 22.39832 -72.63346 35138 ft 517 kts 122°
2026-04-21 15:31 22.36389 -72.56523 35139 ft 517 kts 122°
2026-04-21 15:32 22.32947 -72.49707 35133 ft 517 kts 122°
2026-04-21 15:32 22.29489 -72.42871 35132 ft 517 kts 122°
2026-04-21 15:33 22.26061 -72.36102 35137 ft 517 kts 122°
2026-04-21 15:33 22.22612 -72.29302 35129 ft 516 kts 122°
2026-04-21 15:34 22.19162 -72.22506 35131 ft 516 kts 122°
2026-04-21 15:34 22.15704 -72.15705 35133 ft 516 kts 122°
2026-04-21 15:35 22.12247 -72.08915 35128 ft 516 kts 122°
2026-04-21 15:35 22.08788 -72.02129 35101 ft 516 kts 122°
2026-04-21 15:36 22.05328 -71.95351 35115 ft 515 kts 122°
2026-04-21 15:36 22.01884 -71.88612 35122 ft 515 kts 122°
2026-04-21 15:37 21.98428 -71.81858 35123 ft 515 kts 122°
2026-04-21 15:37 21.94965 -71.75100 35122 ft 515 kts 122°
2026-04-21 15:38 21.91498 -71.68344 35119 ft 514 kts 122°
2026-04-21 15:38 21.88054 -71.61640 35120 ft 514 kts 122°
2026-04-21 15:39 21.84588 -71.54902 35119 ft 514 kts 122°
2026-04-21 15:39 21.81117 -71.48162 35120 ft 514 kts 122°
2026-04-21 15:40 21.78229 -71.42561 35120 ft 514 kts 122°
2026-04-21 15:40 21.74753 -71.35827 35117 ft 514 kts 122°
2026-04-21 15:41 21.71279 -71.29106 35117 ft 514 kts 122°
2026-04-21 15:41 21.67825 -71.22430 35098 ft 514 kts 122°
2026-04-21 15:42 21.64349 -71.15721 35112 ft 513 kts 122°
2026-04-21 15:42 21.60868 -71.09009 35115 ft 513 kts 122°
2026-04-21 15:43 21.57367 -71.02318 35111 ft 512 kts 124°
2026-04-21 15:43 21.53456 -70.95946 35117 ft 510 kts 128°
2026-04-21 15:44 21.49374 -70.89714 35111 ft 510 kts 129°
2026-04-21 15:44 21.45311 -70.83465 35109 ft 510 kts 128°
2026-04-21 15:45 21.41306 -70.77216 35109 ft 510 kts 128°
2026-04-21 15:45 21.37294 -70.70923 35106 ft 510 kts 128°
2026-04-21 15:46 21.33298 -70.64662 35107 ft 510 kts 128°
2026-04-21 15:46 21.29284 -70.58384 35085 ft 510 kts 128°
2026-04-21 15:47 21.25263 -70.52107 35101 ft 510 kts 128°
2026-04-21 15:47 21.21251 -70.45849 35107 ft 509 kts 128°
2026-04-21 15:48 21.17225 -70.39579 35106 ft 509 kts 128°
2026-04-21 15:48 21.13235 -70.33370 35107 ft 509 kts 128°
2026-04-21 15:49 21.09211 -70.27115 35101 ft 509 kts 128°
2026-04-21 15:49 21.05195 -70.20880 35107 ft 508 kts 128°
2026-04-21 15:50 21.01177 -70.14649 35103 ft 508 kts 128°
2026-04-21 15:50 20.97155 -70.08418 35104 ft 508 kts 128°
2026-04-21 15:51 20.93136 -70.02198 35100 ft 508 kts 128°
2026-04-21 15:51 20.89118 -69.95987 35098 ft 507 kts 128°
2026-04-21 15:52 20.85127 -69.89825 35095 ft 507 kts 128°
2026-04-21 15:52 20.81107 -69.83624 35103 ft 506 kts 128°
2026-04-21 15:53 20.77099 -69.77448 35096 ft 505 kts 128°
2026-04-21 15:53 20.73092 -69.71282 35098 ft 504 kts 128°
2026-04-21 15:54 20.69091 -69.65131 35101 ft 504 kts 128°
2026-04-21 15:54 20.65089 -69.58984 35097 ft 504 kts 128°
2026-04-21 15:55 20.61106 -69.52874 35097 ft 504 kts 128°
2026-04-21 15:55 20.57100 -69.46733 35096 ft 503 kts 128°
2026-04-21 15:56 20.53097 -69.40606 35098 ft 503 kts 128°
2026-04-21 15:56 20.49090 -69.34478 35087 ft 502 kts 127°
2026-04-21 15:57 20.45115 -69.28405 35089 ft 502 kts 128°
2026-04-21 15:57 20.41119 -69.22306 35094 ft 501 kts 128°
2026-04-21 15:58 20.37122 -69.16214 35099 ft 501 kts 128°
2026-04-21 15:58 20.33129 -69.10133 35096 ft 501 kts 128°
2026-04-21 15:59 20.29135 -69.04056 35092 ft 501 kts 128°
2026-04-21 15:59 20.25137 -68.97980 35091 ft 501 kts 128°
2026-04-21 16:00 20.21139 -68.91911 35089 ft 501 kts 128°
2026-04-21 16:00 20.17136 -68.85839 35095 ft 501 kts 128°
2026-04-21 16:01 20.13128 -68.79765 35091 ft 501 kts 128°
2026-04-21 16:01 20.09121 -68.73699 35090 ft 502 kts 128°
2026-04-21 16:02 20.05227 -68.67653 35092 ft 502 kts 126°
2026-04-21 16:02 20.01405 -68.61419 35090 ft 503 kts 125°
2026-04-21 16:03 19.97587 -68.55176 35087 ft 503 kts 126°
2026-04-21 16:03 19.93750 -68.48955 35085 ft 503 kts 126°
2026-04-21 16:04 19.89900 -68.42743 35087 ft 503 kts 126°
2026-04-21 16:04 19.86042 -68.36529 35087 ft 503 kts 126°
2026-04-21 16:05 19.82182 -68.30315 35087 ft 503 kts 126°
2026-04-21 16:05 19.78322 -68.24107 35087 ft 503 kts 126°
2026-04-21 16:06 19.74465 -68.17908 35065 ft 503 kts 126°
2026-04-21 16:06 19.70605 -68.11712 35077 ft 502 kts 126°
2026-04-21 16:07 19.66778 -68.05575 35086 ft 501 kts 126°
2026-04-21 16:07 19.62925 -67.99401 35082 ft 501 kts 126°
2026-04-21 16:08 19.57158 -67.90175 35088 ft 500 kts 126°
2026-04-21 16:09 19.53316 -67.84034 35085 ft 499 kts 126°
2026-04-21 16:09 19.49475 -67.77902 35088 ft 499 kts 126°
2026-04-21 16:10 19.45629 -67.71783 35086 ft 499 kts 126°
2026-04-21 16:10 19.41775 -67.65670 35087 ft 499 kts 126°
2026-04-21 16:11 19.37922 -67.59560 35079 ft 499 kts 126°
2026-04-21 16:11 19.34063 -67.53443 35066 ft 499 kts 126°
2026-04-21 16:12 19.30856 -67.48364 35076 ft 499 kts 126°
2026-04-21 16:12 19.26373 -67.41272 35084 ft 498 kts 126°
2026-04-21 16:13 19.22517 -67.35172 35084 ft 498 kts 126°
2026-04-21 16:13 19.18661 -67.29073 35084 ft 498 kts 126°
2026-04-21 16:14 19.14836 -67.23030 35082 ft 497 kts 126°
2026-04-21 16:14 19.10983 -67.16950 34993 ft 495 kts 126°
2026-04-21 16:15 19.07183 -67.10955 34756 ft 484 kts 126°
2026-04-21 16:15 19.05318 -67.08015 34506 ft 481 kts 126°
2026-04-21 16:15 19.03439 -67.05058 34119 ft 487 kts 126°
2026-04-21 16:15 19.01546 -67.02081 33664 ft 486 kts 126°
2026-04-21 16:16 18.99660 -66.99113 33217 ft 483 kts 126°
2026-04-21 16:16 18.97820 -66.96218 32812 ft 479 kts 126°
2026-04-21 16:16 18.95962 -66.93297 32394 ft 476 kts 126°
2026-04-21 16:16 18.94124 -66.90410 31973 ft 473 kts 126°
2026-04-21 16:17 18.92292 -66.87532 31575 ft 470 kts 126°
2026-04-21 16:17 18.90474 -66.84677 31179 ft 467 kts 125°
2026-04-21 16:17 18.88666 -66.81842 30785 ft 464 kts 125°
2026-04-21 16:17 18.86868 -66.79021 30373 ft 462 kts 125°
2026-04-21 16:18 18.85074 -66.76209 29938 ft 460 kts 125°
2026-04-21 16:18 18.83290 -66.73412 29484 ft 457 kts 125°
2026-04-21 16:18 18.81517 -66.70635 29053 ft 453 kts 125°
2026-04-21 16:18 18.79764 -66.67890 28646 ft 449 kts 126°
2026-04-21 16:19 18.78074 -66.65180 28223 ft 446 kts 121°
2026-04-21 16:19 18.76749 -66.62225 27810 ft 443 kts 110°
2026-04-21 16:19 18.75884 -66.59126 27416 ft 439 kts 101°
2026-04-21 16:19 18.75479 -66.55947 27017 ft 435 kts 93°
2026-04-21 16:20 18.75273 -66.52767 26620 ft 432 kts 92°
2026-04-21 16:20 18.75094 -66.49614 26221 ft 429 kts 92°
2026-04-21 16:20 18.74917 -66.46483 25825 ft 426 kts 92°
2026-04-21 16:20 18.74733 -66.43371 25424 ft 424 kts 93°
2026-04-21 16:21 18.74540 -66.40276 25019 ft 422 kts 93°
2026-04-21 16:21 18.74341 -66.37194 24617 ft 420 kts 93°
2026-04-21 16:21 18.74137 -66.34120 24217 ft 418 kts 94°
2026-04-21 16:21 18.73934 -66.31106 23823 ft 416 kts 94°
2026-04-21 16:22 18.73795 -66.29053 23538 ft 415 kts 94°
2026-04-21 16:22 18.73522 -66.25043 22970 ft 411 kts 94°
2026-04-21 16:22 18.73318 -66.22051 22553 ft 408 kts 94°
2026-04-21 16:22 18.73115 -66.19080 22157 ft 404 kts 94°
2026-04-21 16:23 18.72914 -66.16144 21764 ft 400 kts 94°
2026-04-21 16:23 18.72713 -66.13224 21385 ft 396 kts 94°
2026-04-21 16:23 18.72515 -66.10340 21006 ft 393 kts 94°
2026-04-21 16:23 18.72317 -66.07464 20627 ft 390 kts 94°
2026-04-21 16:24 18.72123 -66.04645 20242 ft 380 kts 94°
2026-04-21 16:24 18.71932 -66.01900 19872 ft 370 kts 94°
2026-04-21 16:24 18.71748 -65.99245 19533 ft 365 kts 94°
2026-04-21 16:24 18.71564 -65.96585 19188 ft 363 kts 94°
2026-04-21 16:25 18.71380 -65.93936 18822 ft 361 kts 94°
2026-04-21 16:25 18.71255 -65.92151 18580 ft 360 kts 93°
2026-04-21 16:25 18.71012 -65.88672 18058 ft 358 kts 93°
2026-04-21 16:25 18.70829 -65.86057 17674 ft 355 kts 93°
2026-04-21 16:26 18.70709 -65.84336 17424 ft 354 kts 93°
2026-04-21 16:26 18.70528 -65.81755 17060 ft 351 kts 93°
2026-04-21 16:26 18.70347 -65.79191 16700 ft 348 kts 93°
2026-04-21 16:26 18.70168 -65.76654 16348 ft 346 kts 93°
2026-04-21 16:27 18.69990 -65.74133 15991 ft 344 kts 93°
2026-04-21 16:27 18.69813 -65.71627 15636 ft 342 kts 93°
2026-04-21 16:27 18.69636 -65.69127 15236 ft 341 kts 93°
2026-04-21 16:27 18.69459 -65.66631 14880 ft 339 kts 93°
2026-04-21 16:28 18.69282 -65.64146 14521 ft 338 kts 93°
2026-04-21 16:28 18.69108 -65.61715 14210 ft 335 kts 93°
2026-04-21 16:28 18.68934 -65.59273 13897 ft 333 kts 93°
2026-04-21 16:28 18.68760 -65.56844 13523 ft 331 kts 92°
2026-04-21 16:29 18.68587 -65.54431 13162 ft 328 kts 93°
2026-04-21 16:29 18.68416 -65.52036 12812 ft 326 kts 92°
2026-04-21 16:29 18.68245 -65.49659 12467 ft 324 kts 92°
2026-04-21 16:29 18.68075 -65.47306 12129 ft 321 kts 92°
2026-04-21 16:30 18.67906 -65.44968 11810 ft 318 kts 94°
2026-04-21 16:30 18.67366 -65.42712 11442 ft 320 kts 116°
2026-04-21 16:30 18.65999 -65.40931 11131 ft 318 kts 141°
2026-04-21 16:30 18.64041 -65.39867 10816 ft 317 kts 165°
2026-04-21 16:31 18.61862 -65.39707 10494 ft 314 kts 188°
2026-04-21 16:31 18.59799 -65.40379 10181 ft 310 kts 206°
2026-04-21 16:31 18.57860 -65.41370 9889 ft 308 kts 204°
2026-04-21 16:31 18.55833 -65.41743 9797 ft 298 kts 172°
2026-04-21 16:32 18.53934 -65.41017 9595 ft 290 kts 147°
2026-04-21 16:32 18.52366 -65.39714 9353 ft 285 kts 134°
2026-04-21 16:32 18.50991 -65.38220 9022 ft 285 kts 131°
2026-04-21 16:32 18.49655 -65.36703 8726 ft 283 kts 131°
2026-04-21 16:33 18.48322 -65.35189 8505 ft 279 kts 131°
2026-04-21 16:33 18.47002 -65.33700 8236 ft 278 kts 132°
2026-04-21 16:33 18.45673 -65.32213 7826 ft 279 kts 131°
2026-04-21 16:33 18.44337 -65.30726 7383 ft 277 kts 131°
2026-04-21 16:34 18.43017 -65.29260 6953 ft 274 kts 132°
2026-04-21 16:34 18.41712 -65.27814 6541 ft 271 kts 132°
2026-04-21 16:34 18.40258 -65.26615 6086 ft 272 kts 154°
2026-04-21 16:34 18.38419 -65.26227 5651 ft 272 kts 180°
2026-04-21 16:35 18.36544 -65.26397 5224 ft 269 kts 185°
2026-04-21 16:35 18.34695 -65.26640 4791 ft 267 kts 186°
2026-04-21 16:35 18.32860 -65.26891 4336 ft 265 kts 186°
2026-04-21 16:35 18.31037 -65.27156 3888 ft 264 kts 186°
2026-04-21 16:36 18.29212 -65.27434 3469 ft 265 kts 187°
2026-04-21 16:36 18.27395 -65.27590 3129 ft 256 kts 169°
2026-04-21 16:36 18.25839 -65.26916 3010 ft 234 kts 137°
2026-04-21 16:36 18.24964 -65.25596 2975 ft 213 kts 104°
2026-04-21 16:37 18.24981 -65.24143 2967 ft 191 kts 69°
2026-04-21 16:37 18.25767 -65.23147 2972 ft 175 kts 29°
2026-04-21 16:37 18.26938 -65.22973 3014 ft 175 kts 351°
2026-04-21 16:37 18.28132 -65.23298 3008 ft 177 kts 346°
2026-04-21 16:38 18.29309 -65.23667 3009 ft 175 kts 346°
2026-04-21 16:38 18.30480 -65.23950 2971 ft 171 kts
2026-04-21 16:38 18.31512 -65.23486 2975 ft 159 kts 51°
2026-04-21 16:38 18.31856 -65.22469 2990 ft 149 kts 98°
2026-04-21 16:39 18.31449 -65.21455 3017 ft 154 kts 115°
2026-04-21 16:39 18.30976 -65.20437 3002 ft 154 kts 115°
2026-04-21 16:39 18.30490 -65.19448 2992 ft 150 kts 116°
2026-04-21 16:39 18.30006 -65.18477 2988 ft 151 kts 116°
2026-04-21 16:40 18.29516 -65.17493 2997 ft 153 kts 116°
2026-04-21 16:40 18.29026 -65.16505 3004 ft 155 kts 116°
2026-04-21 16:40 18.28525 -65.15491 2998 ft 157 kts 116°
2026-04-21 16:40 18.28021 -65.14470 2981 ft 156 kts 116°
2026-04-21 16:41 18.27350 -65.13584 2876 ft 158 kts 150°
2026-04-21 16:41 18.26264 -65.13465 2900 ft 175 kts 196°
2026-04-21 16:41 18.25145 -65.14317 2970 ft 224 kts 232°
2026-04-21 16:41 18.24595 -65.15844 3188 ft 221 kts 262°
2026-04-21 16:42 18.24454 -65.17428 3453 ft 222 kts 265°
2026-04-21 16:42 18.24339 -65.19056 3746 ft 227 kts 265°
2026-04-21 16:42 18.24228 -65.20711 3976 ft 225 kts 265°
2026-04-21 16:42 18.24125 -65.22377 3971 ft 231 kts 267°
2026-04-21 16:43 18.24462 -65.24002 3640 ft 232 kts 305°
2026-04-21 16:43 18.25674 -65.25042 3197 ft 225 kts 341°
2026-04-21 16:43 18.27191 -65.25206 2737 ft 219 kts 15°
2026-04-21 16:43 18.28449 -65.24450 2565 ft 208 kts 50°
2026-04-21 16:44 18.29328 -65.23256 2546 ft 206 kts 56°
2026-04-21 16:44 18.30164 -65.22030 2504 ft 206 kts 56°
2026-04-21 16:44 18.30989 -65.20809 2492 ft 204 kts 56°
2026-04-21 16:44 18.31807 -65.19597 2492 ft 202 kts 56°
2026-04-21 16:45 18.32552 -65.18368 2483 ft 202 kts 69°
2026-04-21 16:45 18.32716 -65.16929 2506 ft 198 kts 89°
2026-04-21 16:45 18.32797 -65.15477 2516 ft 199 kts 85°
2026-04-21 16:45 18.32895 -65.14010 2495 ft 200 kts 86°
2026-04-21 16:46 18.32972 -65.12546 2497 ft 201 kts 86°
2026-04-21 16:46 18.33045 -65.11064 2282 ft 204 kts 86°
2026-04-21 16:46 18.33116 -65.09607 2054 ft 195 kts 87°
2026-04-21 16:46 18.33184 -65.08203 1799 ft 189 kts 88°
2026-04-21 16:47 18.33251 -65.06846 1546 ft 182 kts 87°
2026-04-21 16:47 18.33314 -65.05545 1333 ft 174 kts 86°
2026-04-21 16:47 18.33375 -65.04321 1099 ft 160 kts 86°
2026-04-21 16:47 18.33428 -65.03239 984 ft 135 kts 87°
2026-04-21 16:48 18.33491 -65.02291 826 ft 130 kts 87°
2026-04-21 16:48 18.33568 -65.01322 628 ft 134 kts 89°
2026-04-21 16:48 18.33591 -65.00352 504 ft 133 kts 90°
2026-04-21 16:48 18.33648 -64.99369 299 ft 139 kts 91°
2026-04-21 16:49 18.33688 -64.98341 70 ft 140 kts 91°
2026-04-21 16:49 18.33724 -64.97361 19 ft 119 kts 85°
2026-04-21 16:49 18.33759 -64.96649 11 ft 75 kts 87°
2026-04-21 16:49 18.33751 -64.96342 10 ft 14 kts 147°
2026-04-21 16:50 18.33688 -64.96376 10 ft 11 kts 259°
2026-04-21 16:50 18.33683 -64.96456 11 ft 11 kts 268°
2026-04-21 16:50 18.33681 -64.96534 11 ft 10 kts 268°
2026-04-21 16:50 18.33678 -64.96608 12 ft 10 kts 267°
2026-04-21 16:51 18.33674 -64.96682 12 ft 10 kts 267°
2026-04-21 16:51 18.33672 -64.96757 13 ft 10 kts 268°
2026-04-21 16:51 18.33670 -64.96832 14 ft 10 kts 268°
2026-04-21 16:51 18.33667 -64.96904 14 ft 10 kts 267°
2026-04-21 16:52 18.33663 -64.96976 15 ft 10 kts 267°
2026-04-21 16:52 18.33659 -64.97055 16 ft 11 kts 266°
2026-04-21 16:52 18.33654 -64.97139 16 ft 11 kts 264°
2026-04-21 16:52 18.33625 -64.97169 16 ft 6 kts 187°
2026-04-21 16:53 18.33591 -64.97166 16 ft 3 kts 170°
2026-04-21 16:53 18.33578 -64.97163 16 ft 0 kts 171°